[Date Prev][Date Next][Thread Prev][Thread Next] - [Date Index][Thread Index][Author Index]

2 Line ISS Keps 11-17



ISS
1 25544U 98067A   04322.33298157  .00024232  00000-0  19229-3 0  1620
2 25544  51.6362 264.2119 0008449   7.1679 130.5953 15.71096444342371
----
Via the sarex mailing list at AMSAT.ORG courtesy of AMSAT-NA.
To unsubscribe, send "unsubscribe sarex" to Majordomo@amsat.org



AMSAT Top AMSAT Home